EW2849 Weather Reports


Display with metric or nautical units.
time (UTC)temp
F
wind
direction
speed
MPH
gust
MPH
rain 1hr
in
rain 24hr
in
rain mn
in
humidity
%
barometer
mb
20260510031558 52 41 4.0 6.0 0.00 0.00 0.00 93 1012.2
20260510030357 52 52 3.0 5.0 0.00 0.00 0.00 92 1015.6
20260510025155 53 33 2.0 4.0 0.00 0.00 0.00 92 1015.6
20260510023955 53 27 4.0 8.0 0.00 0.00 0.00 91 1015.6
20260510022754 52 13 3.0 7.0 0.00 0.00 0.00 91 1015.6
20260510021553 52 23 4.0 5.0 0.00 0.00 0.00 90 1015.6
20260510020352 53 30 4.0 7.0 0.00 0.00 0.00 89 1015.6
20260510015151 53 3 4.0 7.0 0.00 0.00 0.00 88 1015.6
20260510013949 53 23 5.0 7.0 0.00 0.00 0.00 87 1015.6
20260510012749 53 23 3.0 3.0 0.00 0.00 0.00 87 1015.6
20260510011547 53 40 2.0 3.0 0.00 0.00 0.00 86 1015.6
20260510010407 53 30 1.0 3.0 0.00 0.00 0.00 85 1015.6
20260510005145 53 19 3.0 5.0 0.00 0.00 0.00 84 1015.6
20260510004005 54 34 2.0 5.0 0.00 0.00 0.00 84 1015.6
20260510002743 53 23 3.0 6.0 0.00 0.00 0.00 82 1015.6
20260510001542 54 14 3.0 6.0 0.00 0.00 0.00 81 1015.6
20260510000342 54 16 2.0 4.0 0.00 0.00 0.00 80 1014.8
20260509235140 54 15 3.0 6.0 0.00 0.00 0.00 79 1015.6
20260509233939 54 23 2.0 3.0 0.00 0.00 0.00 78 1015.6
20260509232819 55 18 3.0 6.0 0.00 0.00 0.00 77 1015.6
20260509231537 55 34 1.0 3.0 0.00 0.00 0.00 76 1015.6
20260509230357 55 21 2.0 4.0 0.00 0.00 0.00 75 1015.6
20260509225135 56 40 3.0 4.0 0.00 0.00 0.00 75 1015.6
20260509223954 56 40 3.0 5.0 0.00 0.00 0.00 74 1015.6
20260509222733 56 45 3.0 4.0 0.00 0.00 0.00 74 1015.6
20260509221532 57 48 2.0 3.0 0.00 0.00 0.00 74 1015.6
20260509220330 57 34 1.0 3.0 0.00 0.00 0.00 74 1015.6
20260509215725 57 45 1.0 3.0 0.00 0.00 0.00 73 1015.6
20260509214523 58 23 3.0 6.0 0.00 0.00 0.00 73 1015.6
20260509213322 58 23 5.0 6.0 0.00 0.00 0.00 72 1015.6
20260509212121 58 34 4.0 8.0 0.00 0.00 0.00 71 1015.6
20260509210920 59 23 3.0 5.0 0.00 0.00 0.00 70 1015.6
20260509205738 59 45 2.0 3.0 0.00 0.00 0.00 70 1015.6
20260509204518 59 41 4.0 7.0 0.00 0.00 0.00 68 1015.6
20260509203316 60 42 2.0 5.0 0.00 0.00 0.00 67 1015.6
20260509202115 61 45 2.0 3.0 0.00 0.00 0.00 66 1015.6
20260509201014 61 44 5.0 8.0 0.00 0.00 0.00 65 1015.6
20260509195833 62 29 5.0 7.0 0.00 0.00 0.00 64 1015.6
20260509194612 62 50 4.0 6.0 0.00 0.00 0.00 63 1015.6
20260509193431 63 45 4.0 7.0 0.00 0.00 0.00 62 1015.6
20260509192210 64 26 6.0 7.0 0.00 0.00 0.00 61 1015.6
20260509191009 64 23 5.0 7.0 0.00 0.00 0.00 60 1015.6
20260509185808 65 27 5.0 7.0 0.00 0.00 0.00 59 1015.6
20260509184607 65 38 6.0 9.0 0.00 0.00 0.00 59 1015.6
20260509183406 66 40 6.0 9.0 0.00 0.00 0.00 58 1015.6
20260509182205 67 35 4.0 9.0 0.00 0.00 0.00 57 1015.6
20260509181003 67 40 5.0 6.0 0.00 0.00 0.00 56 1015.6
20260509175802 68 39 5.0 7.0 0.00 0.00 0.00 56 1015.6
20260509174601 68 45 7.0 7.0 0.00 0.00 0.00 55 1015.6
20260509173400 68 18 7.0 9.0 0.00 0.00 0.00 55 1015.6
20260509172217 68 30 4.0 6.0 0.00 0.00 0.00 54 1015.6
20260509170957 69 39 5.0 6.0 0.00 0.00 0.00 54 1015.6
20260509165756 69 29 6.0 8.0 0.00 0.00 0.00 53 1015.6
20260509164554 69 36 7.0 9.0 0.00 0.00 0.00 52 1015.6
20260509163353 70 45 6.0 7.0 0.00 0.00 0.00 53 1015.6
20260509162152 70 53 3.0 6.0 0.00 0.00 0.00 53 1015.6
20260509161010 70 113 5.0 6.0 0.00 0.00 0.00 52 1015.6
20260509155749 70 65 6.0 8.0 0.00 0.00 0.00 52 1015.6
20260509154547 71 58 5.0 8.0 0.00 0.00 0.00 51 1015.6
20260509153346 71 23 8.0 9.0 0.00 0.00 0.00 50 1015.6
20260509152144 72 34 6.0 10.0 0.00 0.00 0.00 49 1015.6
20260509150944 75 38 8.0 11.0 0.00 0.00 0.00 48 1015.6
20260509145742 75 286 2.0 4.0 0.00 0.00 0.00 50 1015.6
20260509144540 71 65 3.0 5.0 0.00 0.00 0.00 51 1015.6
20260509143359 72 96 6.0 6.0 0.00 0.00 0.00 49 1015.6
20260509142137 74 45 4.0 6.0 0.00 0.00 0.00 48 1015.6
20260509140956 75 57 8.0 13.0 0.00 0.00 0.00 48 1015.6
20260509135735 74 353 2.0 5.0 0.00 0.00 0.00 49 1015.6
20260509134534 73 59 6.0 8.0 0.00 0.00 0.00 50 1015.6
20260509133333 73 349 7.0 9.0 0.00 0.00 0.00 51 1015.6
20260509132132 72 51 4.0 7.0 0.00 0.00 0.00 52 1015.6
20260509130930 73 29 5.0 6.0 0.00 0.00 0.00 52 1015.6
20260509125728 73 45 8.0 11.0 0.00 0.00 0.00 50 1015.6
20260509124527 73 70 5.0 7.0 0.00 0.00 0.00 50 1015.6
20260509123326 74 61 6.0 8.0 0.00 0.00 0.00 49 1015.6
20260509122125 76 22 8.0 10.0 0.00 0.00 0.00 49 1015.6
20260509120923 74 27 5.0 6.0 0.00 0.00 0.00 51 1015.6
20260509115722 73 71 6.0 9.0 0.00 0.00 0.00 51 1015.6
20260509114521 72 68 7.0 11.0 0.00 0.00 0.00 52 1015.6
20260509113320 72 34 5.0 7.0 0.00 0.00 0.00 53 1015.6
20260509112118 72 57 7.0 9.0 0.00 0.00 0.00 51 1015.6
20260509110918 72 55 7.0 9.0 0.00 0.00 0.00 51 1015.6
20260509105717 74 33 9.0 11.0 0.00 0.00 0.00 52 1015.6
20260509104516 73 85 7.0 8.0 0.00 0.00 0.00 52 1015.6
20260509103335 73 102 5.0 8.0 0.00 0.00 0.00 53 1015.6
20260509102214 72 65 8.0 11.0 0.00 0.00 0.00 53 1015.6
20260509101013 71 62 9.0 13.0 0.00 0.00 0.00 54 1015.6
20260509095813 71 49 9.0 11.0 0.00 0.00 0.00 58 1015.6
20260509094612 70 45 5.0 9.0 0.00 0.00 0.00 59 1015.6
20260509093431 68 45 7.0 9.0 0.00 0.00 0.00 62 1015.6
20260509092209 69 45 10.0 11.0 0.00 0.00 0.00 61 1015.6
20260509091008 68 45 6.0 9.0 0.00 0.00 0.00 61 1015.6
20260509085807 68 38 8.0 11.0 0.00 0.00 0.00 61 1016.5
20260509084605 67 68 9.0 11.0 0.00 0.00 0.00 62 1015.6
20260509083424 66 62 5.0 8.0 0.00 0.00 0.00 68 1015.6
20260509082204 65 45 6.0 10.0 0.00 0.00 0.00 70 1015.6
20260509081002 64 74 4.0 6.0 0.00 0.00 0.00 73 1015.6
20260509075801 63 45 7.0 11.0 0.00 0.00 0.00 76 1019.0
20260509074559 62 55 5.0 9.0 0.00 0.00 0.00 80 1019.0
20260509073518 60 35 3.0 5.0 0.00 0.00 0.00 83 1019.0
20260509072158 59 32 2.0 4.0 0.00 0.00 0.00 86 1018.2
20260509070957 58 68 2.0 3.0 0.00 0.00 0.00 88 1018.2
20260509065755 56 57 4.0 5.0 0.00 0.00 0.00 90 1017.3
20260509064554 54 51 4.0 5.0 0.00 0.00 0.00 91 1015.6
20260509063353 53 68 4.0 5.0 0.00 0.00 0.00 93 1015.6
20260509062211 52 53 4.0 5.0 0.00 0.00 0.00 93 1016.5
20260509060951 51 56 4.0 7.0 0.00 0.00 0.00 94 1015.6
20260509055749 50 45 3.0 5.0 0.00 0.00 0.00 94 1019.0
20260509054549 49 45 4.0 6.0 0.00 0.00 0.00 94 1015.6
20260509053347 49 45 3.0 4.0 0.00 0.00 0.00 94 1015.6
20260509052147 49 45 2.0 3.0 0.00 0.00 0.00 94 1015.6
20260509050945 49 45 3.0 4.0 0.00 0.00 0.00 94 1015.6
20260509045744 48 23 1.0 1.0 0.00 0.00 0.00 93 1015.6
20260509044543 47 23 2.0 3.0 0.00 0.00 0.00 92 1015.6
20260509043341 47 65 0.0 1.0 0.00 0.00 0.00 92 1015.6
20260509042141 47 45 1.0 2.0 0.00 0.00 0.00 91 1015.6
20260509040939 47 45 0.0 1.0 0.00 0.00 0.00 91 1015.6
20260509035758 47 23 0.0 1.0 0.00 0.00 0.00 91 1015.6
20260509034537 47 45 0.0 1.0 0.00 0.00 0.00 90 1015.6
20260509033336 48 45 0.0 1.0 0.00 0.00 0.00 90 1015.6